When you browse on this site, cookies collect data to enhance your experience and personalize the content and advertising you see.
Visit our Privacy Policy to learn more. By continuing to use the site, you agree to this use of cookies and data.
  • In Romania
  • List of Countries
  • For 7 days
  • Water Temperature
  • Satellite Maps
  • Weather Map
  • Weather Widgets
  • user-avatar
    Login

    Hourly Weather San Cristóbal

    Today, 12 December, Wednesday

    Time Temperature Precipitation Wind Pressure Humidity
    00:00 +20°C° 0 mm 1 mps 673 mmHg 70%
    01:00 +20°C° 0 mm 1 mps 673 mmHg 70%
    02:00 +20°C° 0 mm 1 mps 672 mmHg 71%
    03:00 +20°C° 0 mm 1 mps 672 mmHg 73%
    04:00 +20°C° 0 mm 1 mps 672 mmHg 74%
    05:00 +20°C° 0 mm 1 mps 673 mmHg 73%
    06:00 +21°C° 0 mm 1 mps 673 mmHg 71%
    07:00 +22°C° 0 mm 1 mps 673 mmHg 70%
    08:00 +23°C° 0 mm 1 mps 674 mmHg 66%
    09:00 +25°C° 0 mm 1 mps 674 mmHg 63%
    10:00 +27°C° 0 mm 1 mps 675 mmHg 59%
    11:00 +28°C° 0.1 mm 1 mps 674 mmHg 58%
    12:00 +28°C° 0.1 mm 1 mps 674 mmHg 56%
    13:00 +29°C° 0.1 mm 1 mps 673 mmHg 55%
    14:00 +29°C° 0 mm 1 mps 673 mmHg 55%
    15:00 +29°C° 0 mm 1 mps 672 mmHg 55%
    16:00 +28°C° 0 mm 1 mps 671 mmHg 55%
    17:00 +26°C° 0 mm 1 mps 671 mmHg 62%
    18:00 +24°C° 0 mm 1 mps 671 mmHg 69%
    19:00 +22°C° 0 mm 1 mps 671 mmHg 76%
    20:00 +22°C° 0 mm 1 mps 672 mmHg 77%
    21:00 +22°C° 0 mm 1 mps 672 mmHg 77%
    22:00 +21°C° 0 mm 1 mps 672 mmHg 78%
    23:00 +21°C° 0 mm 1 mps 672 mmHg 78%

    Tomorrow, 13 December, Thursday

    Time Temperature Precipitation Wind Pressure Humidity
    00:00 +21°C° 0 mm 1 mps 672 mmHg 79%
    01:00 +20°C° 0 mm 1 mps 672 mmHg 79%
    02:00 +20°C° 0 mm 1 mps 671 mmHg 79%
    03:00 +20°C° 0 mm 1 mps 671 mmHg 79%
    04:00 +20°C° 0 mm 1 mps 671 mmHg 79%
    05:00 +20°C° 0 mm 1 mps 672 mmHg 76%
    06:00 +21°C° 0 mm 1 mps 672 mmHg 74%
    07:00 +22°C° 0 mm 1 mps 673 mmHg 71%
    08:00 +24°C° 0 mm 1 mps 674 mmHg 65%
    09:00 +26°C° 0 mm 1 mps 674 mmHg 60%
    10:00 +28°C° 0 mm 1 mps 675 mmHg 54%
    11:00 +29°C° 0.1 mm 1 mps 675 mmHg 52%
    12:00 +30°C° 0.1 mm 1 mps 674 mmHg 50%
    13:00 +30°C° 0.1 mm 1 mps 673 mmHg 48%
    14:00 +30°C° 0.2 mm 1 mps 673 mmHg 51%
    15:00 +29°C° 0.2 mm 1 mps 672 mmHg 53%
    16:00 +28°C° 0.2 mm 1 mps 671 mmHg 55%
    17:00 +26°C° 0.4 mm 1 mps 671 mmHg 62%
    18:00 +24°C° 0.4 mm 1 mps 671 mmHg 69%
    19:00 +22°C° 0.4 mm 1 mps 671 mmHg 76%
    20:00 +22°C° 0.4 mm 1 mps 672 mmHg 77%
    21:00 +22°C° 0.4 mm 1 mps 672 mmHg 78%
    22:00 +21°C° 0.4 mm 1 mps 673 mmHg 78%
    23:00 +21°C° 0.1 mm 1 mps 672 mmHg 78%

    Day after tomorrow, 14 December, Friday

    Time Temperature Precipitation Wind Pressure Humidity
    00:00 +21°C° 0.1 mm 1 mps 672 mmHg 78%
    01:00 +20°C° 0.1 mm 1 mps 672 mmHg 78%
    02:00 +20°C° 0 mm 1 mps 672 mmHg 77%
    03:00 +20°C° 0 mm 1 mps 671 mmHg 77%
    04:00 +20°C° 0 mm 1 mps 671 mmHg 76%
    05:00 +20°C° 0 mm 1 mps 672 mmHg 74%
    06:00 +21°C° 0 mm 1 mps 672 mmHg 71%
    07:00 +22°C° 0 mm 1 mps 673 mmHg 68%
    08:00 +24°C° 0 mm 1 mps 674 mmHg 64%
    09:00 +26°C° 0 mm 1 mps 674 mmHg 59%
    10:00 +28°C° 0 mm 1 mps 675 mmHg 55%
    11:00 +28°C° 0.2 mm 1 mps 674 mmHg 55%
    12:00 +28°C° 0.2 mm 1 mps 674 mmHg 56%
    13:00 +28°C° 0.2 mm 1 mps 673 mmHg 56%
    14:00 +28°C° 0.2 mm 1 mps 672 mmHg 57%
    15:00 +28°C° 0.2 mm 1 mps 672 mmHg 58%
    16:00 +27°C° 0.2 mm 1 mps 671 mmHg 59%
    17:00 +25°C° 0.2 mm 1 mps 671 mmHg 66%
    18:00 +24°C° 0.2 mm 1 mps 672 mmHg 72%
    19:00 +22°C° 0.2 mm 1 mps 672 mmHg 78%
    20:00 +22°C° 0.6 mm 1 mps 672 mmHg 79%
    21:00 +22°C° 0.6 mm 1 mps 673 mmHg 80%
    22:00 +21°C° 0.6 mm 1 mps 673 mmHg 80%
    23:00 +21°C° 0.8 mm 1 mps 673 mmHg 81%

    15 December, Saturday

    Time Temperature Precipitation Wind Pressure Humidity
    00:00 +21°C° 0.8 mm 1 mps 673 mmHg 81%
    01:00 +21°C° 0.8 mm 1 mps 672 mmHg 82%
    02:00 +21°C° 0.2 mm 1 mps 672 mmHg 82%
    03:00 +20°C° 0.2 mm 1 mps 672 mmHg 81%
    04:00 +20°C° 0.2 mm 1 mps 672 mmHg 81%
    05:00 +21°C° 0 mm 1 mps 673 mmHg 78%
    06:00 +21°C° 0 mm 1 mps 673 mmHg 75%
    07:00 +21°C° 0 mm 1 mps 674 mmHg 72%
    08:00 +23°C° 0 mm 1 mps 674 mmHg 66%
    09:00 +25°C° 0 mm 1 mps 675 mmHg 60%
    10:00 +27°C° 0 mm 1 mps 676 mmHg 54%
    11:00 +28°C° 0 mm 1 mps 675 mmHg 50%
    12:00 +29°C° 0 mm 1 mps 674 mmHg 47%
    13:00 +30°C° 0 mm 2 mps 674 mmHg 44%
    14:00 +29°C° 0 mm 2 mps 673 mmHg 45%
    15:00 +29°C° 0 mm 1 mps 672 mmHg 47%
    16:00 +28°C° 0 mm 1 mps 672 mmHg 49%
    17:00 +26°C° 0 mm 1 mps 672 mmHg 56%
    18:00 +24°C° 0 mm 1 mps 672 mmHg 64%
    19:00 +21°C° 0 mm 1 mps 672 mmHg 72%
    20:00 +21°C° 0 mm 1 mps 673 mmHg 72%
    21:00 +21°C° 0 mm 1 mps 673 mmHg 71%
    22:00 +20°C° 0 mm 1 mps 673 mmHg 71%
    23:00 +20°C° 0 mm 1 mps 673 mmHg 71%

    16 December, Sunday

    Time Temperature Precipitation Wind Pressure Humidity
    00:00 +19°C° 0 mm 1 mps 673 mmHg 71%
    01:00 +19°C° 0 mm 1 mps 672 mmHg 70%
    02:00 +19°C° 0 mm 1 mps 672 mmHg 69%
    03:00 +19°C° 0 mm 1 mps 672 mmHg 68%
    04:00 +18°C° 0 mm 1 mps 672 mmHg 67%
    05:00 +19°C° 0 mm 1 mps 673 mmHg 65%
    06:00 +20°C° 0 mm 1 mps 673 mmHg 64%
    07:00 +20°C° 0 mm 1 mps 674 mmHg 62%
    08:00 +23°C° 0 mm 1 mps 675 mmHg 56%
    09:00 +26°C° 0 mm 1 mps 675 mmHg 50%
    10:00 +28°C° 0 mm 1 mps 676 mmHg 44%
    11:00 +29°C° 0 mm 1 mps 675 mmHg 41%
    12:00 +30°C° 0 mm 1 mps 674 mmHg 38%
    13:00 +31°C° 0 mm 2 mps 674 mmHg 35%
    14:00 +30°C° 0 mm 1 mps 673 mmHg 37%
    15:00 +29°C° 0 mm 1 mps 672 mmHg 38%
    16:00 +29°C° 0 mm 1 mps 672 mmHg 39%
    17:00 +26°C° 0 mm 1 mps 672 mmHg 48%
    18:00 +23°C° 0 mm 1 mps 672 mmHg 57%
    19:00 +20°C° 0 mm 1 mps 672 mmHg 65%
    20:00 +20°C° 0 mm 1 mps 672 mmHg 65%
    21:00 +20°C° 0 mm 1 mps 672 mmHg 65%
    22:00 +19°C° 0 mm 1 mps 672 mmHg 65%
    23:00 +19°C° 0 mm 1 mps 672 mmHg 67%

    17 December, Monday

    Time Temperature Precipitation Wind Pressure Humidity
    00:00 +19°C° 0 mm 1 mps 672 mmHg 68%
    01:00 +19°C° 0 mm 1 mps 671 mmHg 70%
    02:00 +18°C° 0 mm 1 mps 671 mmHg 72%
    03:00 +18°C° 0 mm 1 mps 671 mmHg 74%
    04:00 +18°C° 0 mm 1 mps 671 mmHg 76%
    05:00 +18°C° 0 mm 1 mps 672 mmHg 71%
    06:00 +19°C° 0 mm 1 mps 672 mmHg 67%
    07:00 +19°C° 0 mm 1 mps 673 mmHg 62%
    08:00 +23°C° 0 mm 1 mps 674 mmHg 51%
    09:00 +26°C° 0 mm 1 mps 674 mmHg 41%
    10:00 +29°C° 0 mm 1 mps 675 mmHg 30%
    11:00 +30°C° 0 mm 1 mps 674 mmHg 30%
    12:00 +30°C° 0 mm 2 mps 674 mmHg 30%
    13:00 +31°C° 0 mm 2 mps 673 mmHg 29%
    14:00 +30°C° 0 mm 2 mps 672 mmHg 32%
    15:00 +29°C° 0 mm 1 mps 672 mmHg 35%
    16:00 +29°C° 0 mm 1 mps 671 mmHg 38%
    17:00 +26°C° 0 mm 1 mps 671 mmHg 46%
    18:00 +23°C° 0 mm 1 mps 671 mmHg 54%
    19:00 +21°C° 0 mm 1 mps 671 mmHg 62%
    20:00 +20°C° 0 mm 1 mps 672 mmHg 62%
    21:00 +20°C° 0 mm 1 mps 672 mmHg 63%
    22:00 +20°C° 0 mm 1 mps 672 mmHg 63%
    23:00 +19°C° 0 mm 1 mps 672 mmHg 65%
    Show more